Weather History for Shirley, NY

Change the Weather History Date:

Monday, July 16, 2012

  Actual Average (KISP) Record (KISP)
Temperature  
Mean Temperature 80 °F 74 °F  
Max Temperature 91 °F 82 °F 94 °F (2013)
Min Temperature 71 °F 66 °F 57 °F (1993)
Degree Days  
Heating Degree Days 0 0  
Month to date heating degree days 0  
Since 1 June heating degree days 38  
Since 1 July heating degree days 0  
Cooling Degree Days 16 9  
Month to date cooling degree days 137  
Year to date cooling degree days 301  
Since 1 June cooling degree days 277  
Growing Degree Days 30 (Base 50)    
Moisture  
Dew Point 70 °F    
Average Humidity 75    
Maximum Humidity 93    
Minimum Humidity 42    
Precipitation  
Precipitation 0.03 in 0.11 in 1.22 in (1989)
Month to date precipitation 1.66  
Year to date precipitation 25.39  
Snow  
Snow 0.00 in 0.00 in - ()
Month to date snowfall 0.0  
Since 1 July snowfall 0.0  
Snow Depth -    
Sea Level Pressure  
Sea Level Pressure 29.85 in    
Wind  
Wind Speed 7 mph (West)    
Max Wind Speed 12 mph    
Max Gust Speed -    
Visibility 10 miles    
Events Rain    
T = Trace of Precipitation, MM = Missing Value Source: NWS Daily Summary

Daily Weather History Graph

Daily Weather History Graph

Search for Another Location

Airport:

Trip Planner

Search our weather history database for the weather conditions in past years. The results will help you decide how hot, cold, wet, or windy it might be!

Date:

Astronomy

Jul. 16, 2012 Rise Set
Actual Time 5:33 AM EDT 8:20 PM EDT
Civil Twilight 5:01 AM EDT 8:52 PM EDT
Nautical Twilight 4:21 AM EDT 9:33 PM EDT
Astronomical Twilight 3:34 AM EDT 10:19 PM EDT
Moon 3:15 AM EDT (7/16) 6:23 PM EDT (7/16)
Length of Visible Light 15h 51m
Length of Day
14h 46m
Waning Crescent, 6% of the Moon is Illuminated
Jul 16
Waning Crescent
Jul 19
New
Jul 26
First Quarter
Aug 1
Full
Aug 9
Last Quarter

Hourly Weather History & Observations

Time (EDT) Temp. Heat Index Dew Point Humidity Pressure Visibility Wind Dir Wind Speed Gust Speed Precip Events Conditions
12:56 AM 73.0 °F - 71.1 °F 93% 29.92 in 10.0 mi SW 6.9 mph - 0.01 in Rain Light Rain
1:56 AM 73.0 °F - 70.0 °F 90% 29.90 in 10.0 mi SW 6.9 mph - 0.01 in   Clear
2:56 AM 72.0 °F - 70.0 °F 93% 29.88 in 10.0 mi West 5.8 mph - N/A   Clear
3:56 AM 72.0 °F - 69.1 °F 91% 29.86 in 10.0 mi West 6.9 mph - N/A   Clear
4:56 AM 71.1 °F - 69.1 °F 93% 29.86 in 10.0 mi West 3.5 mph - N/A   Clear
5:56 AM 71.1 °F - 69.1 °F 93% 29.89 in 10.0 mi WNW 3.5 mph - N/A   Clear
6:56 AM 73.0 °F - 70.0 °F 90% 29.90 in 10.0 mi WNW 4.6 mph - 0.01 in   Clear
7:56 AM 75.9 °F - 71.1 °F 85% 29.89 in 10.0 mi WNW 6.9 mph - N/A   Clear
8:56 AM 79.0 °F - 71.1 °F 77% 29.89 in 10.0 mi NW 11.5 mph - N/A   Clear
9:56 AM 82.0 °F 85.5 °F 69.1 °F 65% 29.87 in 10.0 mi West 6.9 mph - N/A   Clear
10:56 AM 84.0 °F 87.0 °F 68.0 °F 58% 29.86 in 10.0 mi WNW 8.1 mph - N/A   Clear
11:56 AM 86.0 °F 88.8 °F 66.9 °F 53% 29.86 in 10.0 mi West 5.8 mph - N/A   Clear
12:56 PM 88.0 °F 90.7 °F 66.9 °F 49% 29.84 in 10.0 mi West 9.2 mph - N/A   Clear
1:56 PM 88.0 °F 90.3 °F 66.0 °F 48% 29.83 in 10.0 mi WNW 10.4 mph - N/A   Clear
2:56 PM 90.0 °F 93.6 °F 68.0 °F 48% 29.83 in 10.0 mi Variable 5.8 mph - N/A   Partly Cloudy
3:56 PM 90.0 °F 91.3 °F 64.0 °F 42% 29.81 in 10.0 mi WNW 11.5 mph - N/A   Clear
4:56 PM 87.1 °F 92.8 °F 71.1 °F 59% 29.79 in 10.0 mi SW 8.1 mph - N/A   Clear
5:56 PM 84.0 °F 89.6 °F 72.0 °F 67% 29.79 in 10.0 mi SSW 9.2 mph - N/A   Clear
6:56 PM 82.0 °F 86.7 °F 72.0 °F 71% 29.80 in 10.0 mi SSW 9.2 mph - N/A   Clear
7:56 PM 81.0 °F 86.2 °F 73.9 °F 79% 29.79 in 10.0 mi SSW 4.6 mph - N/A   Partly Cloudy
8:56 PM 79.0 °F - 73.9 °F 84% 29.80 in 10.0 mi SW 3.5 mph - N/A   Clear
9:56 PM 79.0 °F - 73.9 °F 84% 29.82 in 10.0 mi SW 3.5 mph - N/A   Clear
10:56 PM 78.1 °F - 73.9 °F 87% 29.82 in 10.0 mi WSW 3.5 mph - N/A   Clear
11:56 PM 77.0 °F - 73.9 °F 90% 29.81 in 9.0 mi Calm Calm - N/A   Clear